�������l�o���
Date,Time,MP-1(��Sv/h),MP-2(��Sv/h),MP-3(��Sv/h),MP-4(��Sv/h),MP-5(��Sv/h),MP-6(��Sv/h),MP-7(��Sv/h),MP-8(��Sv/h),����,����(m/s),���J
2024/05/08,00:00,0.495,0.748,0.479,0.942,0.673,0.313,0.545,0.509,�k��,1.5,�L
2024/05/08,00:10,0.496,0.747,0.479,0.942,0.674,0.312,0.543,0.509,���쐼,1.2,�L
2024/05/08,00:20,0.494,0.746,0.479,0.940,0.672,0.312,0.543,0.510,��쐼,1.9,�L
2024/05/08,00:30,0.496,0.745,0.478,0.941,0.673,0.313,0.545,0.509,��,1.9,�L
2024/05/08,00:40,0.495,0.748,0.478,0.941,0.672,0.313,0.544,0.510,��,3.3,�L
2024/05/08,00:50,0.493,0.747,0.478,0.939,0.673,0.311,0.545,0.509,��,2.2,�L
2024/05/08,01:00,0.495,0.748,0.477,0.939,0.671,0.310,0.544,0.510,��,1.5,��
2024/05/08,01:10,0.493,0.745,0.475,0.940,0.671,0.312,0.543,0.509,��,2.6,�L
2024/05/08,01:20,0.494,0.745,0.477,0.940,0.672,0.311,0.543,0.509,��,3.3,��
2024/05/08,01:30,0.493,0.745,0.476,0.941,0.671,0.310,0.544,0.509,��,2.9,��
2024/05/08,01:40,0.495,0.745,0.475,0.941,0.674,0.310,0.544,0.510,��쐼,2.3,��
2024/05/08,01:50,0.491,0.747,0.475,0.938,0.672,0.309,0.545,0.509,�쐼,2.6,��
2024/05/08,02:00,0.491,0.747,0.475,0.941,0.674,0.308,0.544,0.511,��,2.6,��
2024/05/08,02:10,0.492,0.745,0.475,0.939,0.672,0.309,0.544,0.510,���k��,3.0,��
2024/05/08,02:20,0.492,0.744,0.474,0.937,0.672,0.309,0.544,0.510,���k��,4.1,��
2024/05/08,02:30,0.491,0.745,0.474,0.938,0.672,0.310,0.545,0.509,���k��,5.8,��
2024/05/08,02:40,0.492,0.747,0.476,0.940,0.672,0.310,0.545,0.510,���k��,6.8,��
2024/05/08,02:50,0.493,0.745,0.476,0.941,0.672,0.309,0.544,0.510,���k��,7.0,��
2024/05/08,03:00,0.493,0.747,0.474,0.938,0.673,0.309,0.544,0.510,���k��,7.2,��
2024/05/08,03:10,0.491,0.745,0.475,0.939,0.674,0.309,0.544,0.511,���k��,6.8,��
2024/05/08,03:20,0.490,0.746,0.474,0.939,0.672,0.310,0.544,0.510,���k��,4.8,��
2024/05/08,03:30,0.492,0.746,0.475,0.941,0.673,0.308,0.545,0.510,���k��,3.7,��
2024/05/08,03:40,0.492,0.745,0.474,0.938,0.674,0.310,0.544,0.511,�k��,3.7,��
2024/05/08,03:50,0.492,0.746,0.477,0.938,0.672,0.309,0.547,0.510,�k��,3.7,��
2024/05/08,04:00,0.493,0.747,0.476,0.939,0.673,0.310,0.545,0.511,���k��,4.3,��
2024/05/08,04:10,0.493,0.747,0.476,0.940,0.673,0.310,0.546,0.512,���k��,3.8,��
2024/05/08,04:20,0.493,0.746,0.474,0.941,0.673,0.310,0.545,0.511,���k��,4.1,��
2024/05/08,04:30,0.492,0.747,0.475,0.940,0.675,0.310,0.548,0.512,���k��,5.1,��
2024/05/08,04:40,0.494,0.747,0.475,0.939,0.674,0.310,0.546,0.511,���k��,4.0,��
2024/05/08,04:50,0.491,0.747,0.475,0.941,0.672,0.311,0.546,0.511,�k��,4.4,��
2024/05/08,05:00,0.492,0.746,0.477,0.939,0.673,0.309,0.546,0.512,�k��,3.9,��
2024/05/08,05:10,0.493,0.748,0.477,0.940,0.673,0.309,0.545,0.511,�k��,3.9,��
2024/05/08,05:20,0.492,0.746,0.475,0.940,0.674,0.310,0.545,0.511,�k��,3.9,��
2024/05/08,05:30,0.493,0.747,0.475,0.940,0.672,0.310,0.546,0.512,�k��,4.5,��
2024/05/08,05:40,0.491,0.748,0.476,0.941,0.673,0.310,0.546,0.512,�k��,5.0,��
2024/05/08,05:50,0.493,0.747,0.475,0.941,0.675,0.311,0.547,0.511,�k��,4.4,��
2024/05/08,06:00,0.494,0.748,0.477,0.939,0.675,0.311,0.546,0.512,���k��,4.0,��
2024/05/08,06:10,0.493,0.748,0.476,0.941,0.673,0.311,0.546,0.512,���k��,4.3,��
2024/05/08,06:20,0.494,0.748,0.474,0.942,0.673,0.309,0.546,0.510,���k��,5.6,��
2024/05/08,06:30,0.493,0.750,0.477,0.942,0.674,0.310,0.545,0.511,�k��,4.8,��
2024/05/08,06:40,0.495,0.748,0.476,0.942,0.672,0.309,0.545,0.511,�k�k��,2.8,��
2024/05/08,06:50,0.494,0.747,0.477,0.942,0.673,0.309,0.546,0.512,�k�k��,2.9,��
2024/05/08,07:00,0.495,0.747,0.476,0.944,0.673,0.309,0.546,0.510,�k�k��,3.4,��
2024/05/08,07:10,0.493,0.749,0.477,0.941,0.674,0.309,0.546,0.511,�k�k��,3.9,��
2024/05/08,07:20,0.494,0.749,0.476,0.942,0.675,0.310,0.545,0.510,�k�k��,3.1,��
2024/05/08,07:30,0.494,0.750,0.478,0.941,0.673,0.308,0.546,0.511,�k,2.3,��
2024/05/08,07:40,0.494,0.751,0.478,0.945,0.675,0.310,0.547,0.511,�k�k��,2.5,��
2024/05/08,07:50,0.495,0.748,0.478,0.942,0.675,0.309,0.546,0.511,�k,3.3,��
2024/05/08,08:00,0.494,0.750,0.477,0.942,0.675,0.308,0.547,0.511,�k,3.5,��
2024/05/08,08:10,0.493,0.748,0.477,0.941,0.674,0.310,0.547,0.511,�k�k��,5.9,��
2024/05/08,08:20,0.493,0.747,0.479,0.941,0.674,0.307,0.546,0.511,�k�k��,5.5,��
2024/05/08,08:30,0.491,0.745,0.475,0.942,0.674,0.307,0.546,0.510,�k�k��,5.6,��
2024/05/08,08:40,0.492,0.747,0.476,0.941,0.674,0.307,0.545,0.509,�k�k��,5.3,��
2024/05/08,08:50,0.492,0.746,0.474,0.941,0.672,0.308,0.545,0.510,�k�k��,4.8,��
2024/05/08,09:00,0.491,0.746,0.475,0.944,0.674,0.307,0.545,0.510,�k�k��,4.8,��
2024/05/08,09:10,0.491,0.748,0.474,0.942,0.673,0.307,0.546,0.511,�k�k��,3.8,�L
2024/05/08,09:20,0.493,0.748,0.474,0.943,0.672,0.307,0.546,0.510,�k,4.5,��
2024/05/08,09:30,0.494,0.747,0.474,0.942,0.671,0.306,0.546,0.509,�k�k��,5.7,��
2024/05/08,09:40,0.492,0.748,0.475,0.944,0.673,0.308,0.546,0.510,�k�k��,5.7,��
2024/05/08,09:50,0.493,0.749,0.475,0.940,0.673,0.306,0.546,0.511,�k�k��,5.8,��
2024/05/08,10:00,0.493,0.748,0.476,0.944,0.675,0.308,0.548,0.511,�k�k��,5.7,��
2024/05/08,10:10,0.491,0.749,0.475,0.944,0.675,0.307,0.548,0.510,�k�k��,6.0,��
2024/05/08,10:20,0.495,0.750,0.476,0.941,0.674,0.308,0.547,0.509,�k�k��,4.3,��
2024/05/08,10:30,0.495,0.749,0.474,0.943,0.674,0.308,0.546,0.510,�k�k��,5.4,��
2024/05/08,10:40,0.493,0.749,0.475,0.945,0.674,0.307,0.547,0.510,�k,4.9,��
2024/05/08,10:50,0.492,0.750,0.476,0.944,0.675,0.307,0.547,0.509,�k�k��,5.2,��
2024/05/08,11:00,0.493,0.749,0.475,0.945,0.676,0.307,0.547,0.511,�k�k��,4.9,��
2024/05/08,11:10,0.494,0.750,0.476,0.945,0.676,0.307,0.547,0.509,�k�k��,4.8,��
2024/05/08,11:20,0.494,0.748,0.476,0.941,0.676,0.308,0.547,0.511,�k�k��,4.5,��
2024/05/08,11:30,0.494,0.750,0.475,0.945,0.677,0.308,0.547,0.510,�k�k��,4.6,��
2024/05/08,11:40,0.493,0.751,0.476,0.946,0.678,0.307,0.548,0.509,�k�k��,4.5,�L
2024/05/08,11:50,0.494,0.752,0.475,0.944,0.676,0.308,0.547,0.508,�k�k��,5.3,�L
2024/05/08,12:00,0.494,0.752,0.476,0.945,0.675,0.307,0.547,0.509,�k�k��,5.5,��
2024/05/08,12:10,0.495,0.751,-,0.943,0.677,0.307,0.548,0.511,�k�k��,5.5,��
2024/05/08,12:20,0.494,0.750,-,0.943,0.675,0.309,0.547,0.510,�k�k��,6.1,��
2024/05/08,12:30,0.496,0.752,-,0.946,0.678,0.308,0.548,0.511,�k�k��,5.6,��
2024/05/08,12:40,0.494,0.751,-,0.946,0.676,0.308,0.548,0.510,�k�k��,5.7,�L
2024/05/08,12:50,0.496,0.751,-,0.946,0.676,0.310,0.548,0.512,�k�k��,5.3,�L
2024/05/08,13:00,0.497,0.749,-,0.946,0.678,0.308,0.547,0.511,�k�k��,5.4,�L
2024/05/08,13:10,0.495,0.752,-,0.945,0.678,0.308,0.547,0.511,�k�k��,5.1,�L
2024/05/08,13:20,0.496,0.751,-,0.946,0.679,0.309,0.548,0.512,�k�k��,5.0,�L
2024/05/08,13:30,0.495,0.750,-,0.946,0.678,0.308,0.548,0.510,�k�k��,4.7,�L
2024/05/08,13:40,0.495,0.752,-,0.943,0.677,0.307,0.548,0.511,�k�k��,5.0,�L
2024/05/08,13:50,0.496,0.751,-,0.947,0.678,0.308,0.548,0.511,�k,5.0,�L
2024/05/08,14:00,0.495,0.753,-,0.945,0.678,0.308,0.549,0.511,�k,5.2,��
2024/05/08,14:10,0.494,0.755,-,0.944,0.679,0.308,0.548,0.511,�k,5.2,�L
2024/05/08,14:20,0.496,0.753,-,0.947,0.676,0.309,0.547,0.512,�k,5.3,�L
2024/05/08,14:30,0.496,0.753,-,0.946,0.678,0.309,0.548,0.513,�k,4.5,�L
2024/05/08,14:40,0.497,0.754,-,0.946,0.679,0.308,0.547,0.511,�k,6.2,�L
2024/05/08,14:50,0.496,0.755,-,0.949,0.678,0.308,0.546,0.512,�k,5.7,�L
2024/05/08,15:00,0.496,0.756,-,0.946,0.678,0.309,0.547,0.511,�k�k��,5.4,�L
2024/05/08,15:10,0.500,0.756,-,0.948,0.679,0.309,0.547,0.512,�k�k��,5.5,�L
2024/05/08,15:20,0.499,0.758,-,0.948,0.679,0.311,0.547,0.513,�k,5.6,�L
2024/05/08,15:30,0.499,0.757,-,0.948,0.680,0.311,0.545,0.510,�k,4.4,�L
2024/05/08,15:40,0.500,0.758,-,0.945,0.680,0.310,0.549,0.514,�k�k��,6.2,�L
2024/05/08,15:50,0.500,0.759,-,0.946,0.682,0.310,0.547,0.512,�k�k��,5.9,�L
2024/05/08,16:00,0.498,0.756,-,0.946,0.681,0.310,0.547,0.511,�k�k��,6.3,�L
2024/05/08,16:10,0.499,0.757,-,0.945,0.680,0.310,0.546,0.514,�k�k��,6.7,�L
2024/05/08,16:20,0.499,0.758,-,0.948,0.681,0.312,0.547,0.512,�k�k��,8.3,�L
2024/05/08,16:30,0.500,0.757,-,0.948,0.681,0.311,0.548,0.512,�k,8.0,�L
2024/05/08,16:40,0.498,0.757,0.480,0.947,0.681,0.311,0.548,0.513,�k,7.8,�L
2024/05/08,16:50,0.499,0.755,0.481,0.945,0.683,0.311,0.547,0.514,�k�k��,6.1,�L
2024/05/08,17:00,0.499,0.756,0.480,0.948,0.681,0.310,0.546,0.514,�k,4.8,�L
2024/05/08,17:10,0.499,0.757,0.479,0.945,0.682,0.312,0.546,0.514,�k,5.1,�L
2024/05/08,17:20,0.501,0.754,0.483,0.945,0.680,0.312,0.545,0.515,�k,4.0,�L
2024/05/08,17:30,0.500,0.753,0.481,0.948,0.679,0.313,0.546,0.510,�k�k��,3.4,�L
2024/05/08,17:40,0.500,0.754,0.479,0.948,0.680,0.313,0.547,0.513,�k,5.7,�L
2024/05/08,17:50,0.500,0.757,0.480,0.946,0.679,0.313,0.544,0.511,�k,5.9,�L
2024/05/08,18:00,0.499,0.755,0.481,0.947,0.680,0.311,0.543,0.512,�k,6.2,�L
2024/05/08,18:10,0.499,0.755,0.479,0.948,0.680,0.311,0.544,0.511,�k�k��,3.3,�L
2024/05/08,18:20,0.498,0.755,0.480,0.946,0.679,0.313,0.545,0.512,�k��,2.8,�L
2024/05/08,18:30,0.498,0.754,0.480,0.947,0.679,0.313,0.546,0.511,�k�k��,4.3,�L
2024/05/08,18:40,0.498,0.755,0.479,0.950,0.677,0.314,0.545,0.512,�k�k��,6.5,�L
2024/05/08,18:50,0.499,0.753,0.479,0.947,0.677,0.313,0.545,0.511,�k�k��,5.3,�L
2024/05/08,19:00,0.497,0.751,0.480,0.947,0.678,0.313,0.544,0.512,�k�k��,6.1,�L
2024/05/08,19:10,0.496,0.754,0.479,0.945,0.677,0.312,0.545,0.512,�k��,6.6,�L
2024/05/08,19:20,0.498,0.754,0.478,0.943,0.678,0.312,0.546,0.511,�k�k��,7.4,�L
2024/05/08,19:30,0.498,0.751,0.480,0.943,0.678,0.313,0.545,0.511,�k�k��,7.4,�L
2024/05/08,19:40,0.496,0.752,0.478,0.944,0.678,0.312,0.547,0.513,�k�k��,6.5,�L
2024/05/08,19:50,0.496,0.753,0.478,0.947,0.676,0.312,0.546,0.512,�k�k��,7.1,�L
2024/05/08,20:00,0.496,0.750,0.477,0.943,0.677,0.311,0.544,0.511,�k,6.7,�L
2024/05/08,20:10,0.495,0.751,0.477,0.945,0.677,0.311,0.545,0.511,�k�k��,6.9,�L
2024/05/08,20:20,0.495,0.752,0.476,0.945,0.674,0.312,0.545,0.511,�k�k��,5.7,��
2024/05/08,20:30,0.494,0.752,0.476,0.944,0.675,0.309,0.545,0.512,�k�k��,5.3,�L
2024/05/08,20:40,0.495,0.749,0.476,0.944,0.675,0.311,0.546,0.510,�k��,5.4,�L
2024/05/08,20:50,0.495,0.749,0.475,0.943,0.675,0.311,0.546,0.511,�k��,6.6,�L
2024/05/08,21:00,0.494,0.748,0.475,0.946,0.676,0.309,0.545,0.512,�k��,6.9,�L
2024/05/08,21:10,0.496,0.750,0.474,0.946,0.675,0.309,0.545,0.510,�k��,5.5,�L
2024/05/08,21:20,0.495,0.749,0.477,0.946,0.674,0.311,0.544,0.512,�k��,4.6,�L
2024/05/08,21:30,0.496,0.750,0.478,0.943,0.673,0.311,0.544,0.511,�k�k��,4.8,�L
2024/05/08,21:40,0.495,0.752,0.478,0.942,0.676,0.312,0.544,0.512,�k�k��,5.7,�L
2024/05/08,21:50,0.494,0.748,0.477,0.945,0.676,0.311,0.544,0.511,�k�k��,5.2,�L
2024/05/08,22:00,0.494,0.748,0.476,0.945,0.677,0.312,0.545,0.512,�k�k��,5.5,�L
2024/05/08,22:10,0.493,0.750,0.476,0.945,0.673,0.312,0.545,0.510,�k�k��,4.8,�L
2024/05/08,22:20,0.494,0.748,0.475,0.946,0.673,0.311,0.546,0.511,�k�k��,4.7,�L
2024/05/08,22:30,0.493,0.750,0.474,0.943,0.673,0.310,0.546,0.511,�k�k��,4.4,�L
2024/05/08,22:40,0.492,0.748,0.475,0.944,0.674,0.310,0.545,0.510,�k�k��,4.2,�L
2024/05/08,22:50,0.493,0.748,0.474,0.942,0.672,0.311,0.545,0.510,�k�k��,5.0,�L
2024/05/08,23:00,0.495,0.748,0.474,0.943,0.674,0.310,0.545,0.510,�k�k��,4.7,�L
2024/05/08,23:10,0.491,0.747,0.475,0.944,0.672,0.309,0.544,0.510,�k�k��,4.0,�L
2024/05/08,23:20,0.491,0.746,0.474,0.942,0.671,0.309,0.547,0.509,�k�k��,3.8,�L
2024/05/08,23:30,0.492,0.745,0.474,0.941,0.672,0.310,0.544,0.511,�k��,3.6,�L
2024/05/08,23:40,0.490,0.745,0.473,0.942,0.670,0.310,0.544,0.510,�k�k��,4.4,�L
2024/05/08,23:50,0.491,0.746,0.474,0.942,0.673,0.309,0.545,0.510,�k�k��,5.1,�L
